Location: São Paulo
(23.5507°S, 46.6334°W)
Time: 10:00:17
(UTC-03:00)

Explorer 7 - Pass Details

Date: 24 February 2026
Orbit: 430 x 541 km, 50.2° (Epoch: 11 March)

Event Time Altitude Azimuth Distance (km) Brightness Sun altitude
Rises 07:14:30 0° 208° (SSW) 2,578 10.0 16.2°
Reaches altitude 10° 07:17:03 10° 193° (SSW) 1,667 9.2 16.8°
Maximum altitude 07:20:06 23° 139° (SE) 1,046 9.1 17.5°
Drops below altitude 10° 07:23:02 10° 84° (E) 1,601 11.5 18.2°
Sets 07:25:26 0° 69° (ENE) 2,448 11.3 18.7°
